Regional Weather Roundup
Issued by NWS Memphis, TN

Home | Current Version | Previous Version | Text Only | Print | Product List | Glossary On
Versions: 1 2 3 4 5 6 7 8 9 10 11 12 13 14 15 16 17 18 19 20 21 22 23 24 25 26 27 28 29 30 31 32 33 34 35 36 37 38 39 40 41 42 43 44 45 46 47 48 49 50
000
ASUS44 KMEG 010510
RWRMEG
MEMPHIS CWA HOURLY WEATHER ROUNDUP
NATIONAL WEATHER SERVICE MEMPHIS TN
1200 AM CDT FRI AUG 01 2014

...WEST TENNESSEE...

CITY           SKY/WX    TMP DP  RH WIND       PRES   REMARKS
MEMPHIS INTL   MOCLDY    72  67  84 N3        30.06S
NWS MEMPHIS      N/A     70 N/A N/A MISG        N/A
JACKSON        MOCLDY    68  65  90 CALM      30.07R
LEXINGTON      CLEAR     64  63  94 CALM      30.07S
SAVANNAH       MOCLDY    67  67 100 CALM      30.07S
DYERSBURG      MOCLDY    70  61  73 CALM      30.08S
UNION CITY     CLEAR     64  64 100 CALM      30.07S
PARIS          PTCLDY    59  58  96 CALM      30.09S


...EASTERN ARKANSAS...

CITY           SKY/WX    TMP DP  RH WIND       PRES   REMARKS
JONESBORO      MOCLDY    69  66  90 NW3       30.07S
WEST MEMPHIS   CLOUDY    69  69 100 CALM      30.06R
BATESVILLE     MOCLDY    68  66  94 CALM      30.07S
NEWPORT        PTCLDY    69  67  93 CALM      30.08S
WALNUT RIDGE   PTCLDY    70  64  83 N3        30.07S
BLYTHEVILLE    CLOUDY    71  69  93 NW3       30.07R
SEARCY         MOCLDY    69  68  97 CALM      30.08R
STUTTGART      CLOUDY    70  63  78 E5        30.06S
PINE BLUFF     CLOUDY    69  65  86 NE6       30.05S
MONTICELLO     PTCLDY    71  68  90 CALM      30.04S


...NORTH MISSISSIPPI...

CITY           SKY/WX    TMP DP  RH WIND       PRES   REMARKS
TUPELO         MOCLDY    71  66  84 CALM      30.05S
OLIVE BRANCH   PTCLDY    70  70 100 CALM      30.07R
CLARKSDALE     CLOUDY    68  68 100 N8        30.05F
CORINTH          N/A     68  64  88 CALM      30.06S
GRENADA        PTCLDY    70  66  88 CALM      30.05R
GREENWOOD      PTCLDY    69  68  96 CALM      30.04R
STARKVILLE     FAIR      68  64  88 CALM      30.04S
GOLDEN TRIANGL MOCLDY    68  63  83 CALM      30.05R


...SOUTHEAST MISSOURI...

CITY           SKY/WX    TMP DP  RH WIND       PRES   REMARKS
WEST PLAINS    PTCLDY    64  62  93 S3        30.11S
POPLAR BLUFF   PTCLDY    64  61  90 CALM      30.07S FOG
CAPE GIRARDEAU CLEAR     65  63  93 CALM      30.08S


...NORTHWEST ALABAMA...

CITY           SKY/WX    TMP DP  RH WIND       PRES   REMARKS
MUSCLE SHOALS  PTCLDY    65  62  90 CALM      30.07S


...MIDDLE TENNESSEE...

CITY           SKY/WX    TMP DP  RH WIND       PRES   REMARKS
NASHVILLE      MOCLDY    69  62  78 CALM      30.08S
CLARKSVILLE    PTCLDY    69  61  75 CALM      30.08R
DICKSON        PTCLDY    64  61  88 CALM      30.09R
COLUMBIA       CLEAR     66  64  94 CALM      30.07S
LEWISBURG      MOCLDY    62  59  90 CALM      30.08R


...WESTERN KENTUCKY...

CITY           SKY/WX    TMP DP  RH WIND       PRES   REMARKS
PADUCAH        CLEAR     65  62  90 CALM      30.08R
FORT CAMPBELL  PTCLDY    71  61  70 NW5       30.08R


...CENTRAL ARKANSAS...

CITY           SKY/WX    TMP DP  RH WIND       PRES   REMARKS
LITTLE ROCK    CLOUDY    70  67  90 NE3       30.06S


SKY/WX REPORTED AS FAIR MEANS FEW OR NO CLOUDS BELOW
12 THOUSAND FEET.



USA.gov is the U.S. government's official web portal to all federal, state and local government web resources and services.